CET,Max TemperatureF,Mean TemperatureF,Min TemperatureF,Max Dew PointF,MeanDew PointF,Min DewpointF,Max Humidity, Mean Humidity, Min Humidity, Max Sea Level PressureIn, Mean Sea Level PressureIn, Min Sea Level PressureIn, Max VisibilityMiles, Mean VisibilityMiles, Min VisibilityMiles, Max Wind SpeedMPH, Mean Wind SpeedMPH, Max Gust SpeedMPH,PrecipitationIn, CloudCover, Events, WindDirDegrees
2013-10-1,59,52,46,41,39,36,76,59,45,29.95,29.84,29.80,6,6,6,13,8,,0.00,6,,41
2013-10-2,53,48,41,39,32,25,71,52,33,30.33,30.12,29.95,6,6,6,16,8,,0.00,6,,13
2013-10-3,51,42,32,25,23,19,75,49,30,30.51,30.42,30.33,,,,16,7,,0.00,,,27
2013-10-4,51,38,24,28,24,21,93,60,32,30.54,30.48,30.42,,,,8,3,,0.00,,,118
2013-10-5,57,40,24,30,26,21,86,60,29,30.42,30.31,30.21,,,,14,4,,0.00,,,109
2013-10-6,62,47,32,37,32,27,87,57,30,30.30,30.27,30.24,6,6,6,7,4,,0.00,3,,93
2013-10-7,68,56,44,39,36,32,76,51,28,30.36,30.33,30.30,6,6,5,6,3,,0.00,6,,81
2013-10-8,68,54,41,39,37,34,87,59,30,30.36,30.31,30.24,5,5,5,10,5,,0.00,,,67
2013-10-9,60,50,41,52,42,36,100,68,54,30.24,30.14,30.04,6,6,4,10,5,,0.00,7,Rain,106
2013-10-10,55,53,51,55,53,50,100,97,94,30.04,29.94,29.89,4,2,2,10,4,,0.00,8,Rain,93
2013-10-11,71,61,51,57,54,52,100,80,57,30.06,29.99,29.95,6,4,2,16,12,,0.00,6,Thunderstorm,86
2013-10-12,75,64,53,61,57,54,100,81,53,30.15,30.11,30.06,6,5,4,12,7,,0.00,5,Rain-Thunderstorm,77
2013-10-13,68,57,46,63,55,46,100,89,60,30.18,30.15,30.09,6,2,0,10,5,,0.00,5,Fog-Rain-Thunderstorm,228
2013-10-14,66,54,41,54,48,41,100,85,59,30.21,30.15,30.09,6,6,4,7,2,,0.00,5,Fog,210
2013-10-15,64,52,41,59,52,41,100,90,68,30.09,29.95,29.80,6,4,2,13,4,,0.00,4,Rain,228
2013-10-16,51,46,41,52,48,41,100,97,88,29.80,29.68,29.59,6,5,2,25,9,,0.00,7,Rain,314
2013-10-17,62,55,48,48,46,41,94,79,48,29.98,29.90,29.74,6,6,6,24,14,,0.00,4,,300
2013-10-18,60,52,44,50,45,41,100,77,51,30.12,30.00,29.95,6,6,6,25,10,,0.00,4,Rain,292
2013-10-19,57,46,35,45,40,36,100,77,51,30.30,30.22,30.12,6,6,6,13,6,,0.00,5,,104
2013-10-20,68,54,41,54,47,39,93,73,52,30.24,30.18,30.12,6,6,5,12,7,,0.00,5,,122
2013-10-21,69,58,48,57,52,48,100,85,56,30.15,30.13,30.09,5,5,3,9,4,,0.00,,,230
2013-10-22,68,57,46,59,55,46,100,90,73,30.15,30.12,30.09,6,5,2,9,5,,0.00,5,Fog-Rain,88
2013-10-23,75,68,60,57,55,54,88,69,47,30.09,30.04,29.98,6,6,5,18,10,,0.00,4,,154
2013-10-24,71,60,50,59,55,50,100,81,57,30.18,30.13,30.06,5,4,3,10,4,,0.00,,,190
2013-10-25,73,60,48,59,54,48,100,83,53,30.18,30.15,30.12,6,4,1,9,3,,0.00,,Fog,100
2013-10-26,71,60,48,57,53,46,100,87,60,30.15,30.13,30.09,6,4,1,12,4,21,0.00,,Fog,212
2013-10-27,71,56,42,57,52,43,100,86,53,30.12,30.03,29.92,6,3,0,12,3,,0.00,2,Fog,181
2013-10-28,71,60,50,59,56,50,100,81,60,30.04,29.98,29.92,6,6,6,15,5,,0.00,6,,166
2013-10-29,69,58,48,57,53,48,100,84,64,30.06,29.97,29.92,6,6,5,10,5,,0.00,5,Fog-Rain,293
2013-10-30,60,53,44,52,47,39,100,78,55,30.30,30.16,30.06,6,6,6,17,7,,0.00,5,Rain,311
2013-10-31,60,48,35,45,38,34,100,74,42,30.39,30.33,30.30,6,6,5,7,3,,0.00,1,Fog,92